Voltar ao catálogo

STARLINK-34200

AtivoComunicaçõesVLEO
NORAD 64186·PAYLOAD·🇺🇸 United States

Lançado May 28, 2025 de Cape Canaveral Space Force Station

Loading…

Próximas Passagens (próximas 24 horas)

TLE

AtualizadoSource: CelesTrak SupGP

Época: Sep 14, 2026, 21:07 UTC

1 64186C 25113S   26257.88034722  .00020954  00000+0  67406-3 0  2575
2 64186  53.1578 290.6181 0001227  93.7553 336.9391 15.31680959    19

Acompanhe STARLINK-34200 em tempo real com AllMySat

Download on the App Store